Regional Weather Roundup
Issued by NWS Goodland, KS

Home | Current Version | Previous Version | Graphics & Text | Print | Product List | Glossary On
Versions: 1 2 3 4 5 6 7 8 9 10 11 12 13 14 15 16 17 18 19 20 21 22 23 24 25 26 27 28 29 30 31 32 33 34 35 36 37 38 39 40 41 42 43 44 45 46 47 48 49 50
000
ASUS43 KGLD 270559
RWRGLD

GOODLAND FORECAST AREA HOURLY WEATHER ROUNDUP
NATIONAL WEATHER SERVICE GOODLAND KS
1100 PM MST THU FEB 26 2015

...OFFICIAL OBSERVATIONS...

CITY           SKY/WX    TMP DP  RH WIND       PRES   REMARKS
GOODLAND KS    CLOUDY    14   4  64 SE13      30.32F WCI   0
HILL CITY KS   MOCLDY     8  -3  61 NE6       30.49
IMPERIAL NEB     N/A      8  -4  58 E9        30.38S
MCCOOK NEB     PTCLDY     7  -3  64 NE6       30.45S
AKRON CO       LGT SNOW  11   8  88 SE16      30.20F FOG     WCI  -6
BURLINGTON CO  LGT SNOW  14   8  77 SE9       30.26F
LIMON CO       LGT SNOW   8   6  92 SE16      30.15F FOG     WCI -10
$$

...UNOFFICIAL OBSERVATIONS...

CITY           SKY/WX    TMP DP  RH WIND       PRES   REMARKS
COLBY KS       CLOUDY    14   3  62 E9        30.39S
GOVE KS          N/A     11  32 100 MISG        N/A
LENORA KS        N/A      8  32 100 CALM        N/A
NORTON KS      CLEAR      9  -6  52 NE5       30.46S
SHARON SPRINGS   N/A     15  11  83 CALM        N/A
KIT CARSON CO    N/A     13  10  86 MISG        N/A
YUMA CO          N/A     10   6  82 E10         N/A  WCI  -4
$$



USA.gov is the U.S. government's official web portal to all federal, state and local government web resources and services.